CW7104 Weather Reports


Display with metric or nautical units.
time (UTC)temp
F
wind
direction
speed
MPH
gust
MPH
rain 1hr
in
rain 24hr
in
rain mn
in
humidity
%
barometer
mb
20260906201404 92 66 2.0 12.0 0.00 0.00 0.00 49 1012.9
20260906200904 92 11 6.0 13.0 0.00 0.00 0.00 47 1012.9
20260906200404 91 56 0.0 6.0 0.00 0.00 0.00 50 1012.9
20260906195904 91 56 2.0 9.0 0.00 0.00 0.00 49 1013.0
20260906195404 92 22 6.0 10.0 0.00 0.00 0.00 47 1013.1
20260906194905 92 55 3.0 8.0 0.00 0.00 0.00 49 1013.1
20260906194405 92 57 5.0 9.0 0.00 0.00 0.00 49 1013.2
20260906193904 92 8 5.0 10.0 0.00 0.00 0.00 49 1013.3
20260906193405 92 31 5.0 13.0 0.00 0.00 0.00 49 1013.4
20260906192904 91 13 6.0 12.0 0.00 0.00 0.00 49 1013.3
20260906192404 91 57 3.0 9.0 0.00 0.00 0.00 51 1013.3
20260906191404 90 15 5.0 13.0 0.00 0.00 0.00 52 1013.5
20260906190904 89 52 3.0 12.0 0.00 0.00 0.00 53 1013.5
20260906190404 89 16 4.0 12.0 0.00 0.00 0.00 55 1013.7
20260906185904 88 33 2.0 7.0 0.00 0.00 0.00 54 1013.7
20260906184904 88 298 0.0 7.0 0.00 0.00 0.00 58 1013.6
20260906184404 88 25 2.0 10.0 0.00 0.00 0.00 57 1013.8
20260906183904 88 14 3.0 9.0 0.00 0.00 0.00 58 1013.9
20260906182905 88 20 1.0 8.0 0.00 0.00 0.00 58 1014.0
20260906182404 88 20 1.0 7.0 0.00 0.00 0.00 60 1014.0
20260906181904 87 60 5.0 9.0 0.00 0.00 0.00 59 1014.1
20260906181404 88 347 0.0 3.0 0.00 0.00 0.00 58 1014.0
20260906180904 88 37 5.0 9.0 0.00 0.00 0.00 58 1014.0
20260906180404 87 60 5.0 9.0 0.00 0.00 0.00 61 1013.9
20260906175904 87 36 2.0 9.0 0.00 0.00 0.00 62 1014.1
20260906174904 87 45 0.0 1.0 0.00 0.00 0.00 61 1014.2
20260906173404 87 52 3.0 7.0 0.00 0.00 0.00 63 1014.3
20260906172904 86 32 4.0 8.0 0.00 0.00 0.00 62 1014.4
20260906172404 85 17 5.0 12.0 0.00 0.00 0.00 64 1014.4
20260906171904 84 24 6.0 10.0 0.00 0.00 0.00 67 1014.4
20260906171404 84 24 5.0 10.0 0.00 0.00 0.00 67 1014.5
20260906170905 83 56 5.0 9.0 0.00 0.00 0.00 67 1014.6
20260906170404 83 48 4.0 9.0 0.00 0.00 0.00 68 1014.8
20260906165404 83 351 5.0 9.0 0.00 0.00 0.00 69 1014.9
20260906164904 83 40 5.0 10.0 0.00 0.00 0.00 69 1015.0
20260906164404 83 55 4.0 8.0 0.00 0.00 0.00 69 1015.0
20260906163905 83 23 5.0 9.0 0.00 0.00 0.00 69 1015.1
20260906163404 83 32 4.0 8.0 0.00 0.00 0.00 70 1015.1
20260906162904 83 42 4.0 7.0 0.00 0.00 0.00 70 1015.0
20260906162404 82 77 3.0 8.0 0.00 0.00 0.00 71 1015.0
20260906161904 82 63 5.0 7.0 0.00 0.00 0.00 71 1014.9
20260906161404 82 39 4.0 12.0 0.00 0.00 0.00 72 1014.9
20260906160904 81 23 4.0 10.0 0.00 0.00 0.00 71 1014.9
20260906160404 81 51 4.0 12.0 0.00 0.00 0.00 71 1014.8
20260906155904 81 16 5.0 9.0 0.00 0.00 0.00 72 1014.9
20260906155404 81 36 5.0 9.0 0.00 0.00 0.00 73 1014.8
20260906154904 80 47 3.0 7.0 0.00 0.00 0.00 73 1014.8
20260906154404 80 67 2.0 9.0 0.00 0.00 0.00 74 1014.8
20260906153404 80 26 2.0 7.0 0.00 0.00 0.00 74 1014.8
20260906152904 79 45 4.0 10.0 0.00 0.00 0.00 75 1014.9
20260906152404 79 33 3.0 10.0 0.00 0.00 0.00 75 1014.9
20260906151904 79 34 2.0 3.0 0.00 0.00 0.00 76 1014.8
20260906150904 78 69 1.0 3.0 0.00 0.00 0.00 77 1014.8
20260906145904 77 48 1.0 6.0 0.00 0.00 0.00 78 1014.8
20260906144904 77 53 1.0 3.0 0.00 0.00 0.00 79 1014.8
20260906144404 77 44 2.0 6.0 0.00 0.00 0.00 79 1014.7
20260906143904 76 44 3.0 8.0 0.00 0.00 0.00 79 1014.8
20260906143404 76 40 0.0 0.0 0.00 0.00 0.00 79 1014.8
20260906142904 76 49 0.0 0.0 0.00 0.00 0.00 79 1014.8
20260906141404 76 53 0.0 0.0 0.00 0.00 0.00 80 1014.7
20260906140903 76 11 0.0 0.0 0.00 0.00 0.00 80 1014.8
20260906140403 76 36 0.0 0.0 0.00 0.00 0.00 80 1014.8
20260906135904 76 20 0.0 0.0 0.00 0.00 0.00 81 1014.8
20260906134904 76 62 0.0 0.0 0.00 0.00 0.00 81 1014.6
20260906134403 75 53 0.0 0.0 0.00 0.00 0.00 82 1014.6
20260906133904 75 12 0.0 0.0 0.00 0.00 0.00 81 1014.6
20260906133404 75 65 0.0 0.0 0.00 0.00 0.00 82 1014.5
20260906132904 75 54 0.0 0.0 0.00 0.00 0.00 82 1014.5
20260906131904 75 22 0.0 0.0 0.00 0.00 0.00 82 1014.5
20260906131403 75 51 0.0 0.0 0.00 0.00 0.00 82 1014.3
20260906130904 75 28 0.0 0.0 0.00 0.00 0.00 82 1014.2
20260906130404 74 28 0.0 0.0 0.00 0.00 0.00 82 1014.3
20260906125904 74 45 0.0 0.0 0.00 0.00 0.00 82 1014.3
20260906125404 74 19 0.0 0.0 0.00 0.00 0.00 82 1014.3
20260906124904 74 36 0.0 0.0 0.00 0.00 0.00 82 1014.2
20260906124404 74 7 0.0 0.0 0.00 0.00 0.00 82 1014.2
20260906123404 74 3 0.0 0.0 0.00 0.00 0.00 82 1014.0
20260906122904 73 8 0.0 0.0 0.00 0.00 0.00 82 1014.0
20260906122404 73 4 0.0 0.0 0.00 0.00 0.00 82 1013.9
20260906121904 73 17 0.0 0.0 0.00 0.00 0.00 82 1013.8
20260906121404 73 18 0.0 0.0 0.00 0.00 0.00 82 1013.8
20260906120903 73 18 0.0 0.0 0.00 0.00 0.00 82 1013.8
20260906120403 73 18 0.0 0.0 0.00 0.00 0.00 82 1013.7
20260906115904 73 18 0.0 0.0 0.00 0.00 0.00 82 1013.7
20260906115404 73 18 0.0 0.0 0.00 0.00 0.00 82 1013.6
20260906114904 73 19 0.0 0.0 0.00 0.00 0.00 82 1013.4
20260906114403 73 19 0.0 0.0 0.00 0.00 0.00 82 1013.4
20260906113905 73 22 0.0 0.0 0.00 0.00 0.00 82 1013.4
20260906113404 73 22 0.0 0.0 0.00 0.00 0.00 82 1013.3
20260906112903 73 19 0.0 0.0 0.00 0.00 0.00 82 1013.3
20260906112403 73 21 0.0 0.0 0.00 0.00 0.00 82 1013.1
20260906111904 73 32 0.0 0.0 0.00 0.00 0.00 82 1013.1
20260906110903 74 355 0.0 0.0 0.00 0.00 0.00 82 1013.0
20260906110404 74 355 0.0 0.0 0.00 0.00 0.00 82 1013.0
20260906105404 74 9 0.0 0.0 0.00 0.00 0.00 82 1012.8
20260906104903 74 9 0.0 0.0 0.00 0.00 0.00 82 1012.7
20260906103404 75 7 0.0 0.0 0.00 0.00 0.00 82 1012.4
20260906102904 75 3 0.0 0.0 0.00 0.00 0.00 82 1012.4
20260906102403 75 9 0.0 0.0 0.00 0.00 0.00 82 1012.3
20260906101904 75 7 0.0 0.0 0.00 0.00 0.00 82 1012.3
20260906101404 75 13 0.0 0.0 0.00 0.00 0.00 82 1012.3
20260906095904 75 15 0.0 0.0 0.00 0.00 0.00 82 1012.2
20260906095404 75 15 0.0 0.0 0.00 0.00 0.00 82 1012.1
20260906094903 75 15 0.0 0.0 0.00 0.00 0.00 82 1012.0
20260906093904 75 21 0.0 0.0 0.00 0.00 0.00 82 1012.0
20260906093403 75 9 0.0 0.0 0.00 0.00 0.00 82 1012.0
20260906092904 75 28 0.0 0.0 0.00 0.00 0.00 82 1011.9
20260906091903 75 10 0.0 0.0 0.00 0.00 0.00 82 1011.9
20260906091404 75 19 0.0 0.0 0.00 0.00 0.00 81 1011.9
20260906090906 75 20 0.0 0.0 0.00 0.00 0.00 81 1011.8
20260906090405 75 22 0.0 0.0 0.00 0.00 0.00 81 1011.8
20260906085905 75 22 0.0 0.0 0.00 0.00 0.00 81 1011.8
20260906085406 75 22 0.0 0.0 0.00 0.00 0.00 81 1011.8
20260906084905 75 22 0.0 0.0 0.00 0.00 0.00 81 1011.8
20260906083906 75 22 0.0 0.0 0.00 0.00 0.00 81 1011.7
20260906083405 75 22 0.0 0.0 0.00 0.00 0.00 81 1011.7
20260906082905 76 22 0.0 0.0 0.00 0.00 0.00 81 1011.7
20260906082406 76 22 0.0 0.0 0.00 0.00 0.00 81 1011.7
20260906081905 76 22 0.0 0.0 0.00 0.00 0.00 80 1011.7
20260906080905 76 22 0.0 0.0 0.00 0.00 0.00 80 1011.6
20260906080405 76 22 0.0 0.0 0.00 0.00 0.00 80 1011.6
20260906075905 76 22 0.0 0.0 0.00 0.00 0.00 80 1011.7
20260906074405 76 22 0.0 0.0 0.00 0.00 0.00 80 1011.5
20260906073905 76 22 0.0 0.0 0.00 0.00 0.00 80 1011.5
20260906073406 76 22 0.0 0.0 0.00 0.00 0.00 80 1011.5
20260906072905 76 22 0.0 0.0 0.00 0.00 0.00 80 1011.5
20260906072405 76 22 0.0 0.0 0.00 0.00 0.00 79 1011.5
20260906071405 77 24 0.0 0.0 0.00 0.00 0.00 79 1011.6
20260906070905 77 24 0.0 0.0 0.00 0.00 0.00 79 1011.5
20260906070405 77 24 0.0 0.0 0.00 0.00 0.00 79 1011.6
20260906065905 77 24 0.0 0.0 0.00 0.00 0.00 79 1011.6
20260906065405 77 24 0.0 0.0 0.00 0.00 0.00 79 1011.4
20260906064405 77 24 0.0 0.0 0.00 0.00 0.00 79 1011.6
20260906063904 77 24 0.0 0.0 0.00 0.00 0.00 78 1011.7
20260906063405 77 22 0.0 0.0 0.00 0.00 0.00 78 1011.6
20260906062905 77 23 0.0 0.0 0.00 0.00 0.00 78 1011.7
20260906062405 77 22 0.0 0.0 0.00 0.00 0.00 78 1011.6
20260906061904 77 22 0.0 0.0 0.00 0.00 0.00 78 1011.7
20260906061405 77 22 0.0 0.0 0.00 0.00 0.00 78 1011.7
20260906060905 77 22 0.0 0.0 0.00 0.00 0.00 78 1011.8
20260906060404 77 22 0.0 0.0 0.00 0.00 0.00 77 1011.8
20260906055905 77 22 0.0 0.0 0.00 0.00 0.00 77 1011.9
20260906055405 78 22 0.0 0.0 0.00 0.00 0.00 77 1011.9
20260906054905 78 22 0.0 0.0 0.00 0.00 0.00 77 1011.9
20260906054405 78 22 0.0 0.0 0.00 0.00 0.00 76 1012.0
20260906053405 78 22 0.0 0.0 0.00 0.00 0.00 76 1011.9
20260906052905 78 22 0.0 0.0 0.00 0.00 0.00 76 1011.9
20260906052405 78 22 0.0 0.0 0.00 0.00 0.00 76 1011.9
20260906051905 78 22 0.0 0.0 0.00 0.00 0.00 76 1011.8
20260906051405 78 22 0.0 0.0 0.00 0.00 0.00 76 1011.8
20260906050904 78 22 0.0 0.0 0.00 0.00 0.00 76 1011.9
20260906045905 78 22 0.0 0.0 0.00 0.00 0.00 75 1011.8
20260906044905 79 22 0.0 0.0 0.00 0.00 0.00 75 1011.7
20260906044405 79 22 0.0 0.0 0.00 0.00 0.00 75 1011.7
20260906043904 79 22 0.0 0.0 0.00 0.00 0.00 75 1011.7
20260906043405 79 22 0.0 0.0 0.00 0.00 0.00 74 1011.7
20260906042905 79 22 0.0 0.0 0.00 0.00 0.00 74 1011.6
20260906042405 79 22 0.0 0.0 0.00 0.00 0.00 73 1011.5
20260906041905 79 22 0.0 0.0 0.00 0.00 0.00 74 1011.5
20260906041405 79 22 0.0 0.0 0.00 0.00 0.00 74 1011.5
20260906040404 79 22 0.0 0.0 0.00 0.00 0.00 73 1011.5
20260906035905 80 22 0.0 0.0 0.00 0.00 0.00 73 1011.4
20260906035405 80 22 0.0 0.0 0.00 0.00 0.00 73 1011.4
20260906034405 80 22 0.0 0.0 0.00 0.00 0.00 72 1011.4
20260906033905 80 22 0.0 0.0 0.00 0.00 0.00 72 1011.3
20260906032905 80 22 0.0 0.0 0.00 0.00 0.00 71 1011.2
20260906031905 80 22 0.0 0.0 0.00 0.00 0.00 71 1011.1
20260906031405 80 22 0.0 0.0 0.00 0.00 0.00 71 1011.1
20260906030905 81 22 0.0 0.0 0.00 0.00 0.00 70 1011.1
20260906030404 81 22 0.0 0.0 0.00 0.00 0.00 70 1011.1
20260906025905 81 22 0.0 0.0 0.00 0.00 0.00 69 1011.0
20260906025405 82 22 0.0 0.0 0.00 0.00 0.00 69 1011.0
20260906024904 82 270 0.0 0.0 0.00 0.00 0.00 68 1010.9
20260906023905 82 270 0.0 0.0 0.00 0.00 0.00 67 1010.7
20260906023404 82 270 0.0 0.0 0.00 0.00 0.00 67 1010.6
20260906022404 82 270 0.0 0.0 0.00 0.00 0.00 68 1010.5
20260906021905 82 270 0.0 0.0 0.00 0.00 0.00 68 1010.4
20260906020904 82 270 0.0 0.0 0.00 0.00 0.00 68 1010.5
20260906020405 83 270 0.0 0.0 0.00 0.00 0.00 68 1010.4
20260906015905 83 270 0.0 0.0 0.00 0.00 0.00 67 1010.4
20260906014904 84 270 0.0 0.0 0.00 0.00 0.00 66 1010.3
20260906014405 84 270 0.0 0.0 0.00 0.00 0.00 65 1010.2
20260906012905 85 270 0.0 0.0 0.00 0.00 0.00 63 1010.2
20260906012405 85 270 0.0 0.0 0.00 0.00 0.00 63 1010.1
20260906011905 85 270 0.0 0.0 0.00 0.00 0.00 63 1010.1
20260906011405 86 270 0.0 0.0 0.00 0.00 0.00 62 1010.1
20260906010904 86 269 0.0 0.0 0.00 0.00 0.00 60 1010.1
20260906010405 87 269 0.0 0.0 0.00 0.00 0.00 60 1010.1
20260906005905 87 270 0.0 0.0 0.00 0.00 0.00 60 1010.1
20260906005405 88 270 0.0 0.0 0.00 0.00 0.00 59 1010.0
20260906004904 88 270 0.0 0.0 0.00 0.00 0.00 58 1010.1
20260906004405 88 270 0.0 0.0 0.00 0.00 0.00 57 1010.1
20260906003905 89 270 0.0 0.0 0.00 0.00 0.00 57 1010.1
20260906003405 89 270 0.0 0.0 0.00 0.00 0.00 56 1010.2
20260906002404 89 289 0.0 0.0 0.00 0.00 0.00 56 1010.2
20260906001405 89 279 0.0 0.0 0.00 0.00 0.00 56 1010.3
20260906000904 89 290 0.0 0.0 0.00 0.00 0.00 55 1010.5
20260905235905 90 264 0.0 0.0 0.00 0.00 0.00 55 1010.6
20260905235405 90 265 0.0 0.0 0.00 0.00 0.00 54 1010.5
20260905234406 91 265 0.0 0.0 0.00 0.00 0.00 53 1010.4
20260905233905 91 259 0.0 0.0 0.00 0.00 0.00 54 1010.4
20260905233404 91 259 0.0 0.0 0.00 0.00 0.00 54 1010.3
20260905232905 91 259 0.0 0.0 0.00 0.00 0.00 54 1010.4
20260905232404 91 271 0.0 0.0 0.00 0.00 0.00 54 1010.3
20260905231904 90 333 0.0 0.0 0.00 0.00 0.00 54 1010.3
20260905231404 90 337 0.0 0.0 0.00 0.00 0.00 53 1010.2
20260905230904 90 337 0.0 0.0 0.00 0.00 0.00 53 1010.1
20260905230405 91 337 0.0 0.0 0.00 0.00 0.00 52 1010.0
20260905225904 91 337 0.0 0.0 0.00 0.00 0.00 52 1009.9
20260905225404 91 337 0.0 0.0 0.00 0.00 0.00 51 1009.9
20260905224905 92 337 0.0 0.0 0.00 0.00 0.00 50 1009.8
20260905224404 93 338 0.0 0.0 0.00 0.00 0.00 49 1009.8
20260905223905 94 338 0.0 0.0 0.00 0.00 0.00 48 1009.8
20260905223405 95 338 0.0 0.0 0.00 0.00 0.00 46 1009.8
20260905222904 96 338 0.0 0.0 0.00 0.00 0.00 45 1009.7
20260905222404 97 289 0.0 0.0 0.00 0.00 0.00 43 1009.8
20260905220904 98 299 0.0 0.0 0.00 0.00 0.00 44 1009.4
20260905220405 98 298 0.0 2.0 0.00 0.00 0.00 43 1009.6
20260905215904 97 281 0.0 3.0 0.00 0.00 0.00 43 1009.8
20260905214405 95 312 0.0 0.0 0.00 0.00 0.00 45 1009.9
20260905213905 95 312 0.0 0.0 0.00 0.00 0.00 47 1009.8
20260905213405 95 312 0.0 0.0 0.00 0.00 0.00 48 1009.9
20260905212404 94 311 0.0 0.0 0.00 0.00 0.00 48 1010.0
20260905211404 94 239 0.0 0.0 0.00 0.00 0.00 47 1010.1
20260905210904 93 239 0.0 0.0 0.00 0.00 0.00 48 1010.1
20260905210405 92 248 0.0 0.0 0.00 0.00 0.00 49 1010.2
20260905205904 90 223 0.0 0.0 0.00 0.00 0.00 50 1010.2
20260905205404 89 242 0.0 0.0 0.00 0.00 0.00 52 1010.3
20260905204905 88 241 0.0 0.0 0.00 0.00 0.00 51 1010.5
20260905204405 88 248 1.0 7.0 0.00 0.00 0.00 52 1010.6
20260905203904 88 280 1.0 6.0 0.00 0.00 0.00 52 1010.6
20260905203404 88 288 3.0 9.0 0.00 0.00 0.00 52 1011.0
20260905202404 89 271 2.0 14.0 0.00 0.00 0.00 51 1010.9